Time,TemperatureF,DewpointF,PressureIn,WindDirection,WindDirectionDegrees,WindSpeedMPH,WindSpeedGustMPH,Humidity,HourlyPrecipIn,Conditions,Clouds,dailyrainin,SoftwareType,DateUTC
2013-01-07 00:02:00,34.8,29.0,29.90,West,270,0.0,-999.0,78,-99.99,,,0.00,weatherlink.com 1.10,2013-01-07 05:02:00,
2013-01-07 00:18:00,34.3,28.0,29.90,West,270,0.0,-999.0,78,-99.99,,,0.00,weatherlink.com 1.10,2013-01-07 05:18:00,
2013-01-07 00:32:00,34.1,28.0,29.91,West,266,0.0,-999.0,79,-99.99,,,0.00,weatherlink.com 1.10,2013-01-07 05:32:00,
2013-01-07 00:47:00,34.0,28.0,29.91,West,266,0.0,-999.0,79,-99.99,,,0.00,weatherlink.com 1.10,2013-01-07 05:47:00,
2013-01-07 01:02:00,34.3,28.0,29.92,West,266,0.0,-999.0,78,-99.99,,,0.00,weatherlink.com 1.10,2013-01-07 06:02:00,
2013-01-07 01:17:00,34.1,28.0,29.92,West,266,0.0,-999.0,78,-99.99,,,0.00,weatherlink.com 1.10,2013-01-07 06:17:00,
2013-01-07 01:32:00,33.9,28.0,29.93,West,266,0.0,-999.0,79,-99.99,,,0.00,weatherlink.com 1.10,2013-01-07 06:32:00,
2013-01-07 01:47:00,34.4,28.0,29.93,NW,323,0.0,-999.0,78,-99.99,,,0.00,weatherlink.com 1.10,2013-01-07 06:47:00,
2013-01-07 02:02:00,35.4,29.0,29.94,West,275,0.0,-999.0,77,-99.99,,,0.00,weatherlink.com 1.10,2013-01-07 07:02:00,
2013-01-07 02:17:00,35.9,29.0,29.94,West,277,0.0,-999.0,76,-99.99,,,0.00,weatherlink.com 1.10,2013-01-07 07:17:00,
2013-01-07 02:32:00,36.0,29.0,29.95,West,275,0.0,-999.0,75,-99.99,,,0.00,weatherlink.com 1.10,2013-01-07 07:32:00,
2013-01-07 02:47:00,35.6,29.0,29.95,WNW,286,0.0,-999.0,76,-99.99,,,0.00,weatherlink.com 1.10,2013-01-07 07:47:00,
2013-01-07 03:02:00,35.1,28.0,29.94,WNW,285,0.0,-999.0,76,-99.99,,,0.00,weatherlink.com 1.10,2013-01-07 08:02:00,
2013-01-07 03:17:00,34.7,28.0,29.94,WNW,285,0.0,-999.0,77,-99.99,,,0.00,weatherlink.com 1.10,2013-01-07 08:17:00,
2013-01-07 03:32:00,34.4,28.0,29.94,WNW,289,0.0,-999.0,77,-99.99,,,0.00,weatherlink.com 1.10,2013-01-07 08:32:00,
2013-01-07 03:47:00,33.8,28.0,29.95,WNW,288,0.0,-999.0,78,-99.99,,,0.00,weatherlink.com 1.10,2013-01-07 08:47:00,
2013-01-07 04:02:00,33.3,28.0,29.95,WNW,288,0.0,-999.0,80,-99.99,,,0.00,weatherlink.com 1.10,2013-01-07 09:02:00,
2013-01-07 04:17:00,33.0,27.0,29.96,WNW,288,0.0,-999.0,80,-99.99,,,0.00,weatherlink.com 1.10,2013-01-07 09:17:00,
2013-01-07 04:32:00,32.9,28.0,29.96,WNW,288,1.0,-999.0,81,-99.99,,,0.00,weatherlink.com 1.10,2013-01-07 09:32:00,
2013-01-07 04:47:00,32.6,28.0,29.97,WNW,288,0.0,-999.0,82,-99.99,,,0.00,weatherlink.com 1.10,2013-01-07 09:47:00,
2013-01-07 05:02:00,32.6,28.0,29.98,WNW,288,0.0,-999.0,82,-99.99,,,0.00,weatherlink.com 1.10,2013-01-07 10:02:00,
2013-01-07 05:32:00,32.5,28.0,30.00,NE,47,0.0,-999.0,83,-99.99,,,0.00,weatherlink.com 1.10,2013-01-07 10:32:00,
2013-01-07 05:47:00,32.3,28.0,30.00,NE,47,0.0,-999.0,84,-99.99,,,0.00,weatherlink.com 1.10,2013-01-07 10:47:00,
2013-01-07 06:02:00,31.8,28.0,30.01,North,360,0.0,-999.0,84,-99.99,,,0.00,weatherlink.com 1.10,2013-01-07 11:02:00,
2013-01-07 06:17:00,31.8,28.0,30.02,North,360,0.0,-999.0,85,-99.99,,,0.00,weatherlink.com 1.10,2013-01-07 11:17:00,
2013-01-07 06:32:00,32.4,28.0,30.03,NNW,327,1.0,-999.0,85,-99.99,,,0.00,weatherlink.com 1.10,2013-01-07 11:32:00,
2013-01-07 06:47:00,33.0,29.0,30.04,NW,319,0.0,-999.0,84,-99.99,,,0.00,weatherlink.com 1.10,2013-01-07 11:47:00,
2013-01-07 07:02:00,33.3,29.0,30.05,NNW,331,2.0,-999.0,84,-99.99,,,0.00,weatherlink.com 1.10,2013-01-07 12:02:00,
2013-01-07 07:18:00,33.4,29.0,30.07,NNW,331,0.0,-999.0,83,-99.99,,,0.00,weatherlink.com 1.10,2013-01-07 12:18:00,
2013-01-07 07:32:00,33.1,29.0,30.07,NW,308,0.0,-999.0,84,-99.99,,,0.00,weatherlink.com 1.10,2013-01-07 12:32:00,
2013-01-07 07:47:00,32.9,29.0,30.08,NW,310,0.0,-999.0,84,-99.99,,,0.00,weatherlink.com 1.10,2013-01-07 12:47:00,
2013-01-07 08:02:00,32.6,28.0,30.09,NW,310,0.0,-999.0,84,-99.99,,,0.00,weatherlink.com 1.10,2013-01-07 13:02:00,
2013-01-07 08:17:00,33.0,29.0,30.11,NW,311,0.0,-999.0,85,-99.99,,,0.00,weatherlink.com 1.10,2013-01-07 13:17:00,
2013-01-07 08:32:00,33.9,29.0,30.11,NNW,337,2.0,-999.0,83,-99.99,,,0.00,weatherlink.com 1.10,2013-01-07 13:32:00,
2013-01-07 08:47:00,35.5,30.0,30.13,NNW,329,2.0,-999.0,80,-99.99,,,0.00,weatherlink.com 1.10,2013-01-07 13:47:00,
2013-01-07 09:02:00,36.6,30.0,30.15,NNW,344,4.0,-999.0,77,-99.99,,,0.00,weatherlink.com 1.10,2013-01-07 14:02:00,
2013-01-07 09:18:00,37.3,30.0,30.16,NNE,32,7.0,-999.0,75,-99.99,,,0.00,weatherlink.com 1.10,2013-01-07 14:18:00,
2013-01-07 09:32:00,37.8,29.0,30.17,NNW,340,6.0,-999.0,70,-99.99,,,0.00,weatherlink.com 1.10,2013-01-07 14:32:00,
2013-01-07 09:48:00,37.9,28.0,30.18,NNW,331,4.0,-999.0,67,-99.99,,,0.00,weatherlink.com 1.10,2013-01-07 14:48:00,
2013-01-07 10:02:00,37.7,28.0,30.18,NNW,346,2.0,-999.0,67,-99.99,,,0.00,weatherlink.com 1.10,2013-01-07 15:02:00,
2013-01-07 10:17:00,37.9,27.0,30.20,NW,321,4.0,-999.0,65,-99.99,,,0.00,weatherlink.com 1.10,2013-01-07 15:17:00,
2013-01-07 10:32:00,37.9,27.0,30.20,NNW,345,2.0,-999.0,65,-99.99,,,0.00,weatherlink.com 1.10,2013-01-07 15:32:00,
2013-01-07 10:47:00,38.0,27.0,30.20,NNW,338,4.0,-999.0,64,-99.99,,,0.00,weatherlink.com 1.10,2013-01-07 15:47:00,
2013-01-07 11:02:00,38.2,26.0,30.20,NNE,22,6.0,-999.0,62,-99.99,,,0.00,weatherlink.com 1.10,2013-01-07 16:02:00,
2013-01-07 11:17:00,38.5,26.0,30.20,North,10,2.0,-999.0,60,-99.99,,,0.00,weatherlink.com 1.10,2013-01-07 16:17:00,
2013-01-07 11:32:00,38.2,24.0,30.21,NNW,347,7.0,-999.0,58,-99.99,,,0.00,weatherlink.com 1.10,2013-01-07 16:32:00,
2013-01-07 11:47:00,38.2,24.0,30.21,North,355,3.0,-999.0,56,-99.99,,,0.00,weatherlink.com 1.10,2013-01-07 16:47:00,
2013-01-07 12:03:00,38.7,24.0,30.21,NW,325,2.0,-999.0,55,-99.99,,,0.00,weatherlink.com 1.10,2013-01-07 17:03:00,
2013-01-07 12:17:00,38.7,24.0,30.22,NNW,333,2.0,-999.0,55,-99.99,,,0.00,weatherlink.com 1.10,2013-01-07 17:17:00,
2013-01-07 12:32:00,39.0,23.0,30.23,NW,322,4.0,-999.0,54,-99.99,,,0.00,weatherlink.com 1.10,2013-01-07 17:32:00,
2013-01-07 12:47:00,39.1,24.0,30.23,NW,304,1.0,-999.0,54,-99.99,,,0.00,weatherlink.com 1.10,2013-01-07 17:47:00,
2013-01-07 13:02:00,40.0,23.0,30.23,NNW,337,2.0,-999.0,52,-99.99,,,0.00,weatherlink.com 1.10,2013-01-07 18:02:00,
2013-01-07 13:17:00,40.1,23.0,30.24,NNE,18,1.0,-999.0,51,-99.99,,,0.00,weatherlink.com 1.10,2013-01-07 18:17:00,
2013-01-07 13:32:00,40.0,23.0,30.25,NW,325,2.0,-999.0,51,-99.99,,,0.00,weatherlink.com 1.10,2013-01-07 18:32:00,
2013-01-07 13:47:00,39.1,22.0,30.25,NW,309,3.0,-999.0,51,-99.99,,,0.00,weatherlink.com 1.10,2013-01-07 18:47:00,
2013-01-07 14:02:00,38.5,22.0,30.26,WNW,296,4.0,-999.0,52,-99.99,,,0.00,weatherlink.com 1.10,2013-01-07 19:02:00,
2013-01-07 14:18:00,37.9,22.0,30.26,NNW,346,3.0,-999.0,53,-99.99,,,0.00,weatherlink.com 1.10,2013-01-07 19:18:00,
2013-01-07 14:32:00,38.0,22.0,30.27,NW,315,1.0,-999.0,52,-99.99,,,0.00,weatherlink.com 1.10,2013-01-07 19:32:00,
2013-01-07 14:47:00,38.0,21.0,30.28,WNW,285,0.0,-999.0,51,-99.99,,,0.00,weatherlink.com 1.10,2013-01-07 19:47:00,
2013-01-07 15:02:00,38.2,21.0,30.29,North,355,1.0,-999.0,51,-99.99,,,0.00,weatherlink.com 1.10,2013-01-07 20:02:00,
2013-01-07 15:17:00,38.0,21.0,30.29,WSW,253,0.0,-999.0,51,-99.99,,,0.00,weatherlink.com 1.10,2013-01-07 20:17:00,
2013-01-07 15:32:00,37.7,21.0,30.29,NW,306,2.0,-999.0,51,-99.99,,,0.00,weatherlink.com 1.10,2013-01-07 20:32:00,
2013-01-07 15:47:00,37.0,20.0,30.30,NW,311,1.0,-999.0,50,-99.99,,,0.00,weatherlink.com 1.10,2013-01-07 20:47:00,
2013-01-07 16:02:00,36.3,20.0,30.30,WNW,298,0.0,-999.0,51,-99.99,,,0.00,weatherlink.com 1.10,2013-01-07 21:02:00,
2013-01-07 16:17:00,35.6,18.0,30.31,WNW,298,0.0,-999.0,48,-99.99,,,0.00,weatherlink.com 1.10,2013-01-07 21:17:00,
2013-01-07 16:32:00,34.9,22.0,30.31,WNW,298,0.0,-999.0,60,-99.99,,,0.00,weatherlink.com 1.10,2013-01-07 21:32:00,
2013-01-07 16:47:00,34.0,26.0,30.32,WNW,298,0.0,-999.0,71,-99.99,,,0.00,weatherlink.com 1.10,2013-01-07 21:47:00,
2013-01-07 17:02:00,33.0,25.0,30.32,WNW,298,0.0,-999.0,73,-99.99,,,0.00,weatherlink.com 1.10,2013-01-07 22:02:00,
2013-01-07 17:17:00,32.1,26.0,30.32,WNW,298,0.0,-999.0,77,-99.99,,,0.00,weatherlink.com 1.10,2013-01-07 22:17:00,
2013-01-07 17:32:00,31.4,26.0,30.32,WNW,298,0.0,-999.0,79,-99.99,,,0.00,weatherlink.com 1.10,2013-01-07 22:32:00,
2013-01-07 17:47:00,30.6,26.0,30.33,WNW,298,0.0,-999.0,82,-99.99,,,0.00,weatherlink.com 1.10,2013-01-07 22:47:00,
2013-01-07 18:02:00,30.0,26.0,30.34,WNW,298,0.0,-999.0,84,-99.99,,,0.00,weatherlink.com 1.10,2013-01-07 23:02:00,
2013-01-07 18:17:00,29.5,25.0,30.34,WNW,298,0.0,-999.0,84,-99.99,,,0.00,weatherlink.com 1.10,2013-01-07 23:17:00,
2013-01-07 18:32:00,29.1,25.0,30.35,WNW,298,0.0,-999.0,85,-99.99,,,0.00,weatherlink.com 1.10,2013-01-07 23:32:00,
2013-01-07 18:47:00,28.8,25.0,30.34,WNW,298,0.0,-999.0,86,-99.99,,,0.00,weatherlink.com 1.10,2013-01-07 23:47:00,
2013-01-07 19:02:00,28.5,25.0,30.34,WNW,298,0.0,-999.0,87,-99.99,,,0.00,weatherlink.com 1.10,2013-01-08 00:02:00,
2013-01-07 19:17:00,28.1,25.0,30.34,WNW,298,0.0,-999.0,87,-99.99,,,0.00,weatherlink.com 1.10,2013-01-08 00:17:00,
2013-01-07 19:32:00,27.8,25.0,30.34,WNW,298,0.0,-999.0,88,-99.99,,,0.00,weatherlink.com 1.10,2013-01-08 00:32:00,
2013-01-07 19:47:00,27.5,24.0,30.33,WNW,298,0.0,-999.0,88,-99.99,,,0.00,weatherlink.com 1.10,2013-01-08 00:47:00,
2013-01-07 20:02:00,27.0,24.0,30.33,WNW,298,0.0,-999.0,88,-99.99,,,0.00,weatherlink.com 1.10,2013-01-08 01:02:00,
2013-01-07 20:17:00,26.9,24.0,30.34,WNW,298,0.0,-999.0,90,-99.99,,,0.00,weatherlink.com 1.10,2013-01-08 01:17:00,
2013-01-07 20:32:00,26.6,24.0,30.33,WNW,298,0.0,-999.0,89,-99.99,,,0.00,weatherlink.com 1.10,2013-01-08 01:32:00,
2013-01-07 20:47:00,26.9,25.0,30.34,WNW,298,0.0,-999.0,92,-99.99,,,0.00,weatherlink.com 1.10,2013-01-08 01:47:00,
2013-01-07 21:02:00,27.0,25.0,30.34,WNW,298,0.0,-999.0,92,-99.99,,,0.00,weatherlink.com 1.10,2013-01-08 02:02:00,
2013-01-07 21:17:00,27.3,25.0,30.33,WNW,298,0.0,-999.0,92,-99.99,,,0.00,weatherlink.com 1.10,2013-01-08 02:17:00,
2013-01-07 21:32:00,28.0,26.0,30.33,WNW,298,0.0,-999.0,93,-99.99,,,0.00,weatherlink.com 1.10,2013-01-08 02:32:00,
2013-01-07 21:47:00,27.9,26.0,30.33,WNW,298,0.0,-999.0,92,-99.99,,,0.00,weatherlink.com 1.10,2013-01-08 02:47:00,
2013-01-07 22:02:00,28.2,26.0,30.33,WNW,298,0.0,-999.0,92,-99.99,,,0.00,weatherlink.com 1.10,2013-01-08 03:02:00,
2013-01-07 22:17:00,28.8,27.0,30.33,WNW,298,0.0,-999.0,92,-99.99,,,0.00,weatherlink.com 1.10,2013-01-08 03:17:00,
2013-01-07 22:32:00,28.6,26.0,30.34,WNW,298,0.0,-999.0,90,-99.99,,,0.00,weatherlink.com 1.10,2013-01-08 03:32:00,
2013-01-07 22:47:00,28.2,26.0,30.33,WNW,298,0.0,-999.0,90,-99.99,,,0.00,weatherlink.com 1.10,2013-01-08 03:47:00,
2013-01-07 23:02:00,27.8,25.0,30.33,WNW,298,0.0,-999.0,90,-99.99,,,0.00,weatherlink.com 1.10,2013-01-08 04:02:00,
2013-01-07 23:17:00,27.3,25.0,30.33,WNW,298,0.0,-999.0,90,-99.99,,,0.00,weatherlink.com 1.10,2013-01-08 04:17:00,
2013-01-07 23:32:00,27.4,25.0,30.32,WNW,298,0.0,-999.0,91,-99.99,,,0.00,weatherlink.com 1.10,2013-01-08 04:32:00,
2013-01-07 23:47:00,27.6,26.0,30.32,WNW,298,0.0,-999.0,92,-99.99,,,0.00,weatherlink.com 1.10,2013-01-08 04:47:00,